CAPE
15 152 647 294 170 38 11 5 2 0 0 0 0 0 0 0 97 0 0 0 0 0 0 18 9 3 1 0 0 0 1 1 1 8 28 10 0 0 2 0 24 0 4 7 8 7 7 5 0
222 326 235 243 36 25 14 11 0 0 0 0 0 0 0 0 0 0 0 0 0 0 0 38 0 0 0 0 0 0 1 1 1 4 20 24 24 16 40 36 2 0 5 8 12 6 7 6 3
350 183 104 23 11 0 0 7 2 0 0 0 0 35 64 0 0 0 0 0 0 0 0 2 0 0 0 0 13 0 0 0 0 3 6 9 29 56 4 0 0 2 7 6 7 11 17 14 1
73 42 13 0 0 1 1 1 11 6 0 0 0 50 20 4 0 0 0 0 0 2 0 0 0 0 0 0 48 0 0 0 0 0 1 3 1 0 0 0 0 3 7 6 12 24 35 10 0
241 0 0 0 0 0 0 0 20 17 0 0 0 72 10 0 0 0 0 0 0 10 2 0 0 0 0 2 8 0 0 0 1 0 0 0 0 0 0 0 2 4 14 8 10 4 0 0 0
0 20 0 0 0 0 0 0 2 36 1 0 0 40 3 0 0 0 0 9 2 10 5 1 0 0 0 4 0 0 0 0 0 0 0 0 0 0 0 2 1 3 1 0 0 0 0 0 0
0 0 0 0 0 0 1 0 0 38 4 0 0 57 12 1 0 0 0 11 4 19 6 2 0 0 0 0 0 9 8 2 0 0 0 0 0 0 0 0 0 0 0 0 0 0 0 0 0
0 0 0 0 0 0 3 0 14 38 24 21 0 0 0 0 0 0 0 1 6 9 7 6 0 0 0 0 0 0 0 0 3 0 0 0 0 0 0 0 0 0 0 0 0 0 0 0 0
0 0 0 0 0 0 6 2 0 4 21 16 3 0 0 0 0 0 0 1 8 6 7 8 0 0 9 2 0 0 0 0 0 0 0 0 1 0 0 0 0 0 0 0 2 12 4 1 4
0 0 0 0 0 0 0 0 0 13 14 12 0 3 0 0 0 0 0 0 0 7 9 3 0 2 9 5 0 0 0 0 0 0 0 3 2 0 0 0 0 0 7 13 20 24 24 16 28
0 0 0 0 0 0 0 0 0 1 0 0 0 15 0 0 0 0 0 0 0 0 5 0 0 8 3 1 0 0 0 0 1 3 2 0 0 0 0 6 6 7 13 27 10 11 19 0 5
2 0 0 0 0 0 0 0 0 0 0 0 0 33 0 0 0 0 0 0 0 0 0 0 0 1 1 0 0 0 0 0 0 0 0 0 0 3 4 11 15 8 3 2 6 12 13 0 0
1 0 0 0 0 0 0 0 0 0 0 0 0 12 0 1 0 0 0 0 0 0 0 0 0 0 0 0 0 0 0 0 0 0 0 2 4 7 12 0 4 0 0 0 0 7 2 0 0
0 0 0 0 0 0 0 0 0 0 0 0 0 0 0 0 0 0 0 0 0 0 0 0 0 0 0 0 0 0 0 0 0 0 0 0 5 4 9 2 0 0 0 0 4 12 0 0 0
0 0 0 0 0 0 0 0 0 0 0 0 0 0 0 0 0 0 0 0 0 0 0 0 0 0 0 0 0 0 0 0 1 0 0 7 5 2 3 0 0 0 0 0 4 0 0 0 0
1 0 0 0 0 0 0 0 0 0 0 0 0 0 0 0 0 0 0 0 0 0 0 0 0 0 0 0 0 0 0 0 2 0 0 0 0 0 0 0 0 0 0 0 1 0 0 5 0
1 0 1 1 0 0 0 0 0 0 0 0 0 0 0 0 0 0 0 0 0 0 0 0 0 0 0 0 0 0 0 3 0 0 0 0 0 0 0 0 0 0 0 0 0 0 0 0 0
1 3 0 0 0 0 0 0 0 0 0 0 0 0 0 0 0 0 0 0 0 0 0 0 0 0 0 0 0 1 0 2 0 0 0 0 0 0 0 0 0 0 0 0 0 0 0 0 0
0 0 0 0 0 0 0 0 0 0 0 0 0 0 0 0 0 0 0 0 0 0 0 0 0 0 0 0 0 0 1 0 0 0 0 0 0 0 0 0 0 0 0 0 0 0 0 0 0
3 0 0 0 0 0 0 0 0 0 0 0 0 0 0 0 0 0 0 0 0 0 0 0 0 0 0 0 0 0 0 0 0 0 0 0 0 0 0 0 0 0 0 0 0 0 0 0 0
3 0 0 0 0 1 0 0 0 0 0 0 0 0 0 0 0 0 0 0 0 0 0 0 0 0 0 0 0 0 0 0 0 0 0 0 0 0 0 0 0 0 0 0 0 0 0 0 0
2 1 0 1 0 1 0 0 0 0 0 0 0 0 0 0 0 0 0 0 0 0 0 0 0 0 0 0 0 0 0 0 0 0 0 0 0 0 0 0 0 0 0 0 0 0 0 0 0
0 0 10 4 0 0 0 0 0 0 0 0 0 0 0 0 0 0 0 0 0 0 0 7 14 12 1 0 0 0 0 0 0 0 0 0 0 0 0 0 0 0 0 0 0 0 0 0 0
0 0 0 0 0 0 0 0 0 0 0 0 0 0 0 0 0 0 0 0 0 0 0 10 23 38 29 0 0 0 0 0 0 0 0 0 0 0 0 0 0 0 0 0 0 0 0 0 0
0 0 0 0 0 0 0 0 0 0 0 0 0 0 0 0 0 0 0 0 0 0 0 23 19 44 55 31 0 0 0 0 0 0 0 0 0 0 0 0 0 0 0 0 0 0 0 0 0
0 0 0 0 0 0 0 0 0 0 0 0 0 0 0 0 0 0 0 0 0 0 0 10 29 39 35 26 0 0 0 0 0 0 0 0 0 0 0 0 0 0 0 0 0 0 0 0 0
0 1 1 0 0 0 0 0 0 0 0 0 0 0 0 0 0 0 0 0 0 0 0 0 0 0 0 0 0 0 0 0 0 0 0 0 0 0 0 0 0 0 0 0 0 0 0 0 0
0 0 0 0 0 0 0 0 0 0 0 0 0 0 0 0 0 0 0 0 0 0 0 0 0 0 0 0 0 0 0 0 0 0 0 0 0 0 0 0 0 0 0 0 0 0 0 0 0
0 0 0 1 0 0 0 0 0 0 0 0 0 0 0 0 0 0 0 0 0 0 0 0 0 0 0 0 0 0 0 0 0 0 0 0 0 0 0 0 0 0 0 0 0 0 0 0 0
0 1 0 0 0 0 0 0 0 0 0 0 0 0 0 0 0 0 0 0 0 0 0 0 0 0 0 0 0 0 0 0 0 0 0 0 0 0 0 0 0 0 0 0 0 0 0 0 0
CIN
-264 -158 -48 -38 -19 -31 -15 -25 -4 -0 -0 -0 -0 -0 -0 -0 -56 -0 -0 -0 -0 -0 -0 -70 -56 -0 -0 -0 -0 -0 -0 -0 -0 -0 -0 -1 -0 -0 -0 -0 -0 -0 -0 -0 -0 -0 -0 -0 -0
-111 -48 -43 -31 -18 -12 -12 -13 -0 -0 -0 -0 -0 -0 -0 -0 -0 -0 -0 -0 -0 -0 -0 -96 -0 -0 -0 -0 -0 -0 -0 -0 -0 -0 -0 -2 -2 -4 -0 -0 -7 -0 -0 -0 -0 -0 -0 -0 -0
-48 -34 -41 -26 -30 -1 -2 -9 -18 -0 -0 -0 -0 -30 -31 -0 -0 -0 -0 -0 -0 -0 -0 -34 -0 -0 -0 -0 -1 -0 -0 -0 -0 -0 -0 -0 -0 -53 -0 -0 -0 -0 -0 -0 -0 -0 -0 -0 -0
-64 -101 -101 -0 -0 -11 -0 -12 -23 -44 -0 -0 -0 -56 -126 -17 -0 -0 -0 -0 -0 -3 -0 -0 -0 -0 -0 -0 -172 -0 -0 -0 -0 -0 -0 -0 -0 -0 -0 -0 -0 -0 -0 -0 -0 -0 -0 -0 -0
-8 -15 -0 -0 -0 -0 -0 -0 -41 -51 -0 -0 -0 -57 -47 -0 -0 -0 -0 -0 -0 -13 -11 -0 -0 -0 -0 -0 -0 -0 -0 -0 -0 -0 -0 -0 -0 -0 -0 -0 -0 -0 -0 -0 -0 -0 -0 -0 -0
-0 -16 -0 -0 -0 -0 -0 -0 -42 -49 -30 -0 -0 -66 -19 -0 -0 -0 -0 -1 -1 -12 -3 -0 -0 -0 -0 -0 -0 -0 -0 -0 -0 -0 -0 -0 -0 -0 -0 -0 -0 -0 -0 -0 -0 -0 -0 -0 -0
-0 -0 -0 -0 -0 -0 -2 -0 -0 -40 -42 -0 -0 -46 -34 -2 -0 -0 -0 -2 -12 -11 -5 -1 -0 -0 -0 -0 -0 -6 -3 -4 -0 -0 -0 -0 -0 -0 -0 -0 -0 -0 -0 -0 -0 -0 -0 -0 -0
-0 -0 -0 -0 -0 -0 -15 -0 -50 -33 -15 -47 -2 -0 -0 -0 -0 -0 -0 -1 -16 -11 -7 -4 -0 -0 -0 -0 -0 -0 -0 -0 -1 -0 -0 -0 -0 -0 -0 -0 -0 -0 -0 -0 -0 -0 -0 -0 -0
-0 -0 -0 -0 -0 -0 -36 -37 -0 -43 -61 -93 -66 -0 -0 -0 -0 -0 -0 -1 -8 -5 -4 -6 -0 -0 -4 -2 -0 -0 -0 -0 -0 -0 -0 -0 -6 -0 -0 -0 -0 -0 -0 -0 -4 -12 -8 -8 -18
-0 -0 -0 -0 -0 -0 -0 -0 -0 -68 -96 -114 -0 -44 -0 -0 -0 -0 -0 -0 -0 -2 -1 -1 -0 -3 -9 -0 -0 -0 -0 -0 -0 -0 -0 -13 -2 -0 -0 -0 -0 -0 -17 -11 -9 -6 -5 -3 -2
-0 -0 -0 -0 -0 -0 -2 -0 -0 -21 -0 -3 -0 -234 -0 -0 -0 -0 -0 -0 -0 -0 -4 -0 -0 -11 -11 -0 -0 -0 -0 -0 -3 -2 -2 -0 -0 -0 -0 -27 -19 -17 -14 -9 -3 -5 -20 -0 -6
-3 -0 -0 -0 -0 -0 -0 -0 -0 -0 -0 -0 -0 -293 -0 -0 -0 -0 -0 -0 -0 -0 -0 -0 -0 -1 -0 -0 -0 -0 -0 -0 -0 -0 -0 -0 -0 -1 -1 -5 -6 -7 -5 -2 -2 -8 -29 -0 -0
-0 -0 -0 -0 -0 -0 -0 -0 -0 -0 -0 -0 -6 -235 -0 -0 -0 -0 -0 -0 -0 -0 -0 -0 -0 -0 -0 -0 -0 -0 -0 -0 -0 -0 -0 -2 -0 -2 -2 -0 -3 -0 -0 -0 -1 -16 -18 -0 -0
-0 -0 -0 -0 -0 -0 -0 -0 -0 -0 -0 -0 -0 -0 -0 -0 -0 -0 -0 -0 -0 -0 -0 -0 -0 -0 -0 -0 -0 -0 -0 -0 -0 -0 -0 -0 -2 -1 -1 -2 -0 -0 -0 -0 -3 -11 -0 -0 -0
-0 -0 -0 -0 -0 -0 -0 -0 -0 -0 -0 -0 -1 -0 -0 -0 -0 -0 -0 -0 -0 -0 -0 -0 -0 -0 -0 -0 -0 -0 -0 -0 -1 -0 -0 -14 -7 -6 -10 -0 -0 -0 -0 -0 -7 -2 -0 -1 -0
-2 -0 -0 -0 -0 -0 -0 -0 -0 -0 -0 -0 -0 -0 -0 -0 -0 -0 -0 -0 -0 -0 -0 -0 -0 -0 -0 -0 -0 -0 -0 -0 -2 -0 -0 -0 -0 -0 -0 -0 -0 -0 -0 -0 -5 -2 -0 -3 -2
-2 -0 -0 -0 -0 -0 -0 -0 -0 -0 -0 -0 -0 -0 -0 -0 -0 -0 -0 -0 -0 -0 -0 -0 -0 -0 -0 -0 -0 -0 -0 -2 -2 -0 -0 -0 -0 -0 -0 -0 -0 -0 -0 -0 -0 -4 -1 -3 -0
-0 -0 -0 -0 -0 -0 -0 -0 -0 -0 -0 -0 -0 -0 -0 -0 -0 -0 -0 -0 -0 -0 -0 -0 -0 -0 -0 -0 -0 -4 -1 -2 -0 -0 -0 -0 -0 -0 -0 -0 -0 -0 -0 -0 -0 -0 -0 -0 -0
-0 -0 -0 -0 -0 -0 -0 -0 -0 -0 -0 -0 -0 -0 -0 -0 -0 -0 -0 -0 -0 -0 -0 -0 -0 -0 -0 -0 -0 -0 -0 -0 -0 -0 -0 -0 -0 -0 -0 -0 -0 -0 -0 -0 -0 -0 -0 -0 -0
-0 -0 -0 -0 -0 -2 -0 -0 -0 -12 -0 -0 -0 -0 -0 -0 -0 -0 -0 -0 -0 -0 -0 -0 -0 -0 -0 -0 -0 -0 -0 -0 -0 -0 -0 -0 -0 -0 -0 -0 -0 -0 -0 -0 -0 -0 -0 -0 -0
-0 -0 -0 -0 -4 -6 -0 -0 -0 -0 -0 -0 -0 -0 -0 -0 -0 -0 -0 -0 -0 -0 -0 -0 -0 -0 -0 -0 -0 -0 -0 -0 -0 -0 -0 -0 -0 -0 -0 -0 -0 -0 -0 -0 -0 -0 -0 -0 -0
-0 -6 -0 -0 -0 -0 -0 -0 -0 -0 -0 -0 -0 -0 -0 -0 -0 -0 -0 -0 -0 -0 -0 -0 -49 -0 -0 -0 -0 -0 -0 -0 -0 -0 -0 -0 -0 -0 -0 -0 -0 -0 -0 -0 -0 -0 -0 -0 -0
-0 -0 -5 -0 -0 -0 -0 -0 -0 -0 -0 -0 -0 -0 -0 -0 -0 -0 -0 -0 -0 -0 -0 -249 -185 -195 -52 -0 -0 -0 -0 -0 -0 -0 -0 -0 -0 -0 -0 -0 -0 -0 -0 -0 -0 -0 -0 -0 -0
-0 -0 -0 -0 -0 -0 -0 -0 -0 -0 -0 -0 -0 -0 -0 -0 -0 -0 -0 -0 -0 -0 -0 -255 -202 -165 -160 -0 -3 -0 -0 -0 -0 -0 -0 -0 -0 -0 -0 -0 -0 -0 -0 -0 -0 -0 -0 -0 -0
-0 -0 -0 -0 -0 -0 -0 -0 -0 -0 -0 -0 -0 -0 -0 -0 -0 -0 -0 -0 -0 -0 -0 -266 -232 -177 -154 -166 -0 -0 -0 -0 -0 -0 -0 -0 -0 -0 -0 -0 -0 -0 -0 -0 -0 -0 -0 -0 -0
-0 -0 -0 -0 -0 -0 -0 -0 -0 -0 -0 -0 -0 -0 -0 -0 -0 -0 -0 -0 -0 -0 -0 -293 -243 -210 -180 -183 -0 -0 -0 -0 -0 -0 -0 -0 -0 -0 -0 -0 -0 -0 -0 -0 -0 -0 -0 -0 -0
-0 -0 -0 -0 -0 -0 -0 -0 -0 -0 -0 -0 -0 -0 -0 -0 -0 -0 -0 -0 -0 -0 -0 -0 -0 -0 -0 -0 -0 -0 -0 -0 -0 -0 -0 -0 -0 -0 -0 -0 -0 -0 -0 -0 -0 -0 -0 -0 -0
-0 -0 -0 -0 -0 -0 -0 -0 -0 -0 -0 -0 -0 -0 -0 -0 -0 -0 -0 -0 -0 -0 -0 -0 -0 -0 -0 -0 -0 -0 -0 -0 -0 -0 -0 -0 -0 -0 -0 -0 -0 -0 -0 -0 -0 -0 -0 -0 -0
-0 -0 -0 -0 -0 -0 -0 -0 -0 -0 -0 -0 -0 -0 -0 -0 -0 -0 -0 -0 -0 -0 -0 -0 -0 -0 -0 -0 -0 -0 -0 -0 -0 -0 -0 -0 -0 -0 -0 -0 -0 -0 -0 -0 -0 -0 -0 -0 -0
-0 -0 -0 -0 -0 -0 -0 -0 -0 -0 -0 -0 -0 -0 -0 -0 -0 -0 -0 -0 -0 -0 -0 -0 -0 -0 -0 -0 -0 -0 -0 -0 -0 -0 -0 -0 -0 -0 -0 -0 -0 -0 -0 -0 -0 -0 -0 -0 -0
Wind_Speed
18 16 18 16 18 19 25 24 12 11 12 13 6 11 5 9 14 12 3 6 8 7 7 1 3 1 2 4 6 6 4 3 3 6 6 23 24 26 26 26 26 27 27 27 27 28 28 28 27
19 17 17 18 21 24 21 19 13 11 7 7 9 15 14 14 13 5 7 4 7 7 8 2 2 3 4 6 10 8 5 5 6 9 12 16 23 24 24 25 25 26 26 27 27 27 27 28 28
20 18 19 19 23 26 20 22 11 7 6 8 14 13 13 14 5 10 3 5 6 4 5 3 1 3 6 7 8 9 10 11 11 15 17 18 20 23 23 24 24 25 26 26 26 26 26 27 28
18 19 22 26 29 25 16 25 3 7 9 12 11 12 12 13 9 5 6 5 4 3 4 4 2 3 5 6 7 8 9 12 15 17 19 20 21 22 23 24 24 24 25 25 25 26 27 27 26
21 24 29 28 34 31 14 17 10 9 13 16 17 12 12 7 3 6 6 4 5 2 2 3 2 3 5 3 7 8 11 13 15 17 19 20 21 21 22 23 23 24 24 25 25 25 25 26 26
24 25 28 33 32 32 19 16 16 15 12 15 15 12 14 6 1 4 5 4 4 4 3 2 1 3 3 3 6 8 12 14 16 17 19 20 20 21 22 23 23 24 24 24 24 24 24 24 25
25 31 34 33 31 34 23 16 21 19 14 9 13 13 13 9 6 5 6 5 4 3 3 2 1 3 3 3 5 7 11 13 15 17 18 19 20 21 21 22 23 23 24 24 23 23 23 23 23
27 31 36 35 34 33 21 17 22 22 16 7 18 17 18 11 7 6 7 8 4 5 4 1 0 2 2 3 5 7 10 12 14 16 17 18 19 20 21 22 22 23 23 23 23 23 22 22 23
27 35 39 38 33 33 17 20 22 19 15 15 16 17 8 7 9 8 9 10 7 8 5 2 2 3 4 4 5 7 10 12 13 15 16 17 17 19 21 21 21 22 22 22 22 22 24 22 22
32 39 39 34 33 33 27 24 22 21 17 18 14 8 3 10 8 10 12 12 10 11 4 2 2 4 5 5 7 8 10 11 13 14 15 15 18 19 19 20 20 20 20 20 20 21 23 24 23
31 45 36 38 37 31 28 26 22 23 26 19 11 6 0 8 8 9 12 12 9 8 11 3 3 5 6 5 7 8 10 11 12 13 15 16 17 17 18 17 19 19 20 20 20 23 23 24 22
42 40 41 42 38 33 30 28 26 27 24 17 7 2 2 6 8 11 10 11 9 8 6 3 3 2 3 5 6 8 9 10 11 13 14 15 16 18 20 21 23 24 24 23 22 22 22 23 22
44 43 43 41 42 35 32 35 30 29 27 21 6 3 3 6 9 8 8 9 9 7 6 5 4 3 2 4 6 8 9 10 12 13 13 14 16 17 19 21 22 23 22 22 22 21 21 23 22
34 41 47 44 38 36 34 36 32 30 22 15 7 6 4 6 9 10 10 9 8 7 6 6 5 5 4 5 5 6 8 10 11 12 12 14 15 17 18 19 21 22 22 22 21 21 21 21 21
44 45 42 48 43 38 36 42 39 29 19 16 14 12 8 7 11 16 11 11 10 8 8 8 7 6 5 4 5 7 9 9 10 11 12 13 15 16 17 19 20 22 21 19 20 21 20 20 21
42 39 53 49 43 40 34 45 40 28 21 19 18 15 11 9 10 12 14 11 11 10 10 9 7 7 7 4 6 7 7 8 8 10 11 13 14 16 16 17 20 20 19 18 18 19 18 18 19
44 59 60 51 42 37 36 41 40 30 28 22 21 17 14 12 9 10 11 10 12 12 12 11 10 10 8 6 7 6 6 6 7 9 10 12 13 14 15 17 18 18 18 17 17 18 17 18 18
52 60 53 56 44 39 38 46 37 29 28 24 22 18 15 15 12 12 11 9 11 13 14 12 11 11 7 5 5 3 4 5 7 8 10 11 13 13 14 15 16 17 17 16 16 16 16 16 16
42 48 54 52 43 42 44 45 43 27 32 31 25 20 17 16 14 12 12 11 12 12 12 12 11 10 8 7 4 2 1 3 6 9 10 11 12 13 14 15 15 16 16 15 14 15 14 15 14
47 49 56 45 45 41 43 45 45 30 34 36 26 22 19 17 15 14 13 13 12 12 11 11 12 10 9 6 3 2 1 3 5 7 9 10 11 12 13 13 14 15 14 14 13 12 13 15 13
44 51 49 47 36 47 42 47 46 42 34 36 37 27 22 19 17 16 15 14 13 13 13 12 11 10 9 6 4 2 4 6 7 6 7 8 9 11 12 13 13 13 13 12 11 12 12 14 14
47 46 46 41 40 45 42 46 48 42 36 35 38 32 23 21 20 18 16 16 15 14 13 12 11 11 9 8 6 6 5 6 7 4 6 6 8 10 11 12 12 12 12 12 11 11 12 14 13
41 34 41 40 35 35 43 43 44 43 45 36 35 37 27 22 21 19 17 17 16 15 14 13 12 11 10 9 7 7 7 6 6 5 5 5 7 8 9 10 11 10 11 12 11 12 13 13 12
26 27 29 33 36 43 42 44 47 38 35 36 33 31 31 26 21 19 18 17 17 16 15 14 14 13 12 11 9 9 8 7 7 6 6 5 5 7 9 9 10 10 10 11 11 12 12 12 13
30 31 35 41 42 44 38 41 52 41 35 33 32 31 31 33 25 22 20 19 21 18 17 16 16 15 13 13 11 10 9 8 8 7 7 6 6 6 5 7 8 9 10 10 11 12 12 12 13
33 32 37 42 43 39 27 48 50 54 34 38 33 28 32 29 30 25 21 20 21 21 19 17 16 16 15 14 13 12 10 11 11 9 8 7 7 5 4 6 7 7 8 9 9 11 11 12 13
31 34 28 33 31 38 38 38 34 37 37 35 35 25 25 27 27 26 23 21 21 20 19 19 18 17 16 15 14 13 12 12 12 11 9 7 6 5 4 5 5 6 7 8 9 9 10 11 12
25 21 29 26 36 42 40 39 39 29 39 36 32 29 27 25 28 27 23 22 22 20 19 20 19 19 17 16 15 14 14 13 12 11 9 7 6 4 3 4 4 4 5 7 8 8 8 10 11
24 25 24 25 26 34 36 35 26 35 34 35 36 32 28 25 21 22 23 22 22 21 21 21 20 19 17 16 15 15 14 13 11 10 7 6 5 4 4 3 4 5 5 6 6 7 7 9 10
24 27 26 29 30 30 29 29 23 22 22 25 28 26 25 21 21 23 25 22 20 22 22 21 20 18 18 17 16 16 14 11 10 9 7 6 6 5 4 4 4 5 5 4 5 5 6 7 9
Wind_Direction
291 271 261 271 268 265 251 258 297 294 273 260 279 261 285 267 239 249 193 90 94 100 98 150 70 49 20 16 12 4 335 285 306 354 351 56 55 61 58 56 46 44 43 42 39 37 35 32 29
272 271 268 265 259 250 261 258 285 284 304 281 268 250 251 246 246 233 214 111 98 103 100 106 68 38 24 23 33 19 355 354 352 10 16 23 56 61 50 45 39 40 39 36 34 34 32 28 24
269 266 262 260 256 248 271 259 280 309 305 281 255 258 257 249 246 226 138 119 107 115 110 100 35 31 32 29 31 27 26 26 23 34 35 34 31 42 40 38 38 38 37 35 33 33 32 30 26
266 262 261 247 244 255 281 247 295 291 279 265 267 267 265 259 239 251 132 130 126 136 107 107 61 32 28 24 34 27 28 33 40 42 42 40 38 37 37 38 38 37 34 33 32 30 28 28 30
261 253 246 248 241 247 277 270 284 282 268 254 248 261 262 259 316 116 134 154 189 153 140 116 79 35 27 1 40 33 35 38 41 41 41 40 38 37 37 36 36 35 33 32 31 32 32 32 31
256 251 247 242 245 248 271 269 267 269 274 259 255 266 256 279 242 182 174 164 204 195 188 178 76 34 13 350 28 36 44 47 46 43 42 40 39 37 37 37 35 34 35 36 37 35 33 32 29
253 249 243 242 248 247 259 267 254 259 264 274 265 268 264 257 233 188 202 200 167 198 174 210 283 35 15 358 12 2 43 41 44 43 41 42 42 42 42 40 37 38 36 36 36 34 31 29 28
254 249 239 241 242 246 261 264 255 250 262 279 257 267 258 250 204 192 211 214 187 216 220 199 343 37 339 348 6 12 24 33 44 42 46 50 50 49 46 42 38 37 37 36 33 32 32 31 29
254 242 239 238 242 247 270 260 256 261 261 265 263 273 288 141 153 197 209 217 219 228 233 213 90 76 65 12 11 19 28 35 44 48 56 59 59 54 45 42 41 40 38 38 37 35 29 31 28
244 241 237 241 242 252 264 258 256 252 255 260 268 302 46 130 175 197 211 218 223 232 184 180 104 93 77 45 56 50 46 49 54 59 62 64 43 42 47 47 45 43 42 40 39 40 31 27 27
251 238 240 239 243 264 260 256 252 252 250 258 262 273 168 143 165 183 217 223 217 212 241 176 132 100 90 72 74 61 60 65 62 56 54 50 54 54 51 52 43 41 39 38 36 31 28 25 27
243 244 241 240 247 259 257 263 252 249 258 261 253 188 213 199 179 166 202 212 207 190 224 174 147 110 70 60 64 59 61 56 54 56 52 55 47 43 37 29 26 25 22 24 27 31 32 30 32
243 246 243 246 245 253 258 253 251 250 251 256 210 184 210 197 216 194 186 209 208 187 183 172 150 136 86 73 66 72 68 68 72 65 60 45 42 39 31 28 28 26 27 26 27 32 35 35 40
249 249 242 243 247 248 251 249 251 250 250 251 217 236 206 182 180 195 220 187 192 187 178 167 153 135 109 91 68 69 72 79 71 68 54 39 34 31 30 31 27 24 25 27 32 39 40 44 44
240 243 248 243 241 246 248 245 243 248 243 240 245 248 240 199 162 161 174 170 174 180 167 161 150 141 127 101 86 79 88 70 60 47 36 37 31 28 26 26 24 22 27 37 42 41 47 49 42
238 240 237 237 239 244 243 241 239 245 243 241 244 246 241 221 183 165 161 165 163 163 158 156 158 147 134 114 102 94 79 70 58 38 36 28 22 20 22 24 21 23 32 39 43 43 48 48 43
238 232 229 235 237 241 240 243 240 241 241 241 240 241 240 235 203 203 179 171 162 159 156 155 154 148 140 126 116 99 88 70 45 34 29 24 19 19 21 18 20 27 29 35 40 38 40 36 39
228 224 229 228 234 238 242 238 243 242 235 239 237 237 236 234 216 211 208 187 168 159 159 158 156 153 151 140 121 81 58 38 28 27 20 22 20 22 20 20 21 23 26 30 36 38 36 35 39
230 230 231 233 233 240 239 238 238 239 236 236 235 234 234 233 225 214 206 195 173 169 167 168 165 165 161 161 156 137 67 29 12 8 10 14 22 19 17 18 17 17 23 27 37 39 37 30 39
230 232 230 234 237 239 241 242 238 239 239 238 235 233 233 233 224 217 204 199 190 183 182 177 175 176 176 183 193 272 56 358 356 2 6 8 13 11 10 12 15 18 23 27 31 38 30 22 24
228 231 230 230 238 238 243 242 238 238 241 239 238 237 236 228 221 217 209 202 207 194 190 188 189 186 187 194 198 285 330 343 334 346 352 2 8 7 6 8 12 16 22 25 27 26 20 12 14
231 232 231 230 236 235 231 243 237 235 239 239 237 240 230 228 229 222 215 209 201 205 206 205 200 195 199 197 213 220 256 292 313 328 348 359 5 0 0 7 11 14 18 22 21 21 16 15 15
233 235 232 233 237 235 233 241 239 235 238 238 239 239 242 229 225 219 214 211 216 218 211 214 212 207 209 212 224 234 267 290 314 324 332 346 356 1 1 3 6 12 16 17 20 19 18 17 20
226 228 236 235 238 238 232 234 238 235 230 238 239 239 241 240 225 221 222 229 230 225 225 218 215 217 221 219 232 232 244 273 292 300 307 319 339 348 353 359 359 9 12 15 19 23 21 21 22
231 228 235 233 235 240 236 238 236 240 244 244 239 237 237 241 239 229 223 226 236 228 226 223 221 226 230 225 238 242 250 262 273 276 291 300 317 322 340 350 356 3 9 15 19 18 19 19 19
227 233 236 232 233 236 237 240 240 241 251 250 249 239 237 236 238 237 226 227 232 234 228 228 229 235 234 238 245 253 253 266 278 276 276 287 302 310 330 345 352 358 6 14 19 13 16 19 16
233 237 243 244 245 238 242 252 259 247 247 253 251 242 233 237 231 234 235 234 235 234 233 236 239 245 245 246 253 257 262 269 273 274 276 284 295 307 321 340 346 352 2 8 7 12 9 13 11
238 234 239 248 238 240 243 250 251 251 248 248 249 249 250 250 244 242 237 240 245 244 246 249 248 250 252 249 255 259 265 272 278 272 273 277 295 300 311 329 335 344 352 1 3 7 10 6 8
236 240 248 250 251 244 242 251 266 256 255 251 251 252 252 255 254 243 247 252 247 248 252 253 253 253 252 253 259 263 268 272 270 266 262 272 285 293 293 303 318 324 336 351 357 1 7 4 6
249 247 248 249 249 250 248 251 275 274 272 266 264 258 256 259 258 252 254 256 251 253 256 256 255 252 254 257 261 266 268 267 266 264 263 268 278 284 286 297 307 313 326 340 349 354 359 0 0